Regional Weather Roundup
Issued by NWS

Home | Current Version | Previous Version | Text Only | Print | Product List | Glossary On
Versions: 1 2 3 4 5 6 7 8 9 10 11 12 13 14 15 16 17 18 19 20 21 22 23 24 25 26 27
000
ASUS46 KSEW 240410
RWRWA

WASHINGTON REGIONAL WEATHER ROUNDUP
NATIONAL WEATHER SERVICE SEATTLE WA
900 PM PDT TUE MAY 23 2017

NOTE:"FAIR" INDICATES FEW OR NO CLOUDS BELOW 12,000 FEET WITH NO
SIGNIFICANT WEATHER AND/OR OBSTRUCTIONS TO VISIBILITY.

WAZ507-509-555>559-240500-
SEATTLE, TACOMA, EVERETT, AND VICINITY

CITY           SKY/WX    TMP DP  RH WIND       PRES   REMARKS
EVERETT        CLOUDY    52  44  74 N15G23    29.99S
BOEING FIELD   CLOUDY    58  49  72 NE7       29.98R
RENTON         CLOUDY    58  49  72 N8        29.97R
SEATAC AIRPORT MOCLDY    58  48  69 W6        29.98R
JBLM-MCCHORD   CLEAR     58  46  63 S16       29.99R
PUYALLUP         N/A     57  48  72 SW8G21    30.01R
BREMERTON      CLEAR     55  50  83 NE9       29.96S
JBLM-FT LEWIS  CLEAR     56  43  61 VRB6      30.03R
TACOMA NARROWS CLEAR     55  45  68 SW16G22   29.99R
$$

WAZ001-503-506-510-514-515-240500-
NORTH INTERIOR

CITY           SKY/WX    TMP DP  RH WIND       PRES   REMARKS
BELLINGHAM     CLEAR     57  34  41 W8        29.96R
FRIDAY HARBOR  CLEAR     52  39  61 SW13G28   29.99R
EASTSOUND      CLEAR     54  37  54 SW10G20   29.97R
PORT ANGELES   CLEAR     51  39  63 W20G26    30.04S
EDIZ HOOK      FAIR      53  40  61 W25G36    30.03R
PORT TOWNSEND  FAIR      54  41  62 NW18G32   30.00R
NAS WHIDBEY    PTCLDY    53  41  63 W43G60    29.99S
ARLINGTON      CLOUDY    54  36  50 NW15G24   30.02F
BURLINGTON     CLEAR     52  39  62 W13       30.01S
$$

WAZ020-022-039-040-504-511-512-240500-
SOUTHWEST INTERIOR

CITY           SKY/WX    TMP DP  RH WIND       PRES   REMARKS
SHELTON        CLEAR     54  42  64 SW21G31   29.96S
OLYMPIA        CLEAR     54  43  66 W14       30.01S
CHEHALIS       FAIR      54  45  71 VRB6G16   30.07S
KELSO          CLOUDY    56  47  71 W14G20    30.09R
VANCOUVER      PTCLDY    61  52  72 VRB7G16   30.05R
SCAPPOOSE, OR  CLOUDY    58  48  69 N14G20    30.06R
PORTLAND, OR   PTCLDY    60  50  69 NW12G18   30.05R
$$

WAZ021-516-517-240500-
WASHINGTON COAST

CITY           SKY/WX    TMP DP  RH WIND       PRES   REMARKS
FORKS          MOCLDY    50  42  74 NW6       30.14R
HOQUIAM        PTCLDY    52  44  74 W16G23    30.11R
ASTORIA, OR    PTCLDY    53  41  63 NW17G26   30.14S
$$

WAZ019-023-024-040-567>569-240500-
CASCADE MOUNTAINS AND COLUMBIA GORGE

CITY           SKY/WX    TMP DP  RH WIND       PRES   REMARKS
STAMPEDE PASS  CLOUDY    48  44  86 W13G25    29.93S
TROUTDALE, OR  CLEAR     62  51  67 NW10G21   30.04R
THE DALLES, OR CLEAR     75  48  38 NW29G41   29.84R
$$

WAZ026-027-041>044-520-521-240500-
EAST SLOPES

CITY           SKY/WX    TMP DP  RH WIND       PRES   REMARKS
OMAK           CLEAR     74  34  23 W28G36    29.64S
WENATCHEE      CLEAR     71  41  33 W21G35    29.70F
ELLENSBURG     CLEAR     65  45  48 NW31G44   29.80R
YAKIMA         CLEAR     74  45  35 NW26G36   29.79R
SUNNYSIDE ARPT CLEAR     73  30  20 W13G22    29.75R
$$

WAZ028-034-035-240500-
COLUMBIA BASIN

CITY           SKY/WX    TMP DP  RH WIND       PRES   REMARKS
EPHRATA        CLEAR     75  32  20 W17G25    29.70R
MOSES LAKE     CLEAR     75  33  21 W25G35    29.69R
PASCO          CLEAR     82  39  21 W17       29.70R
HERMISTON, OR  CLEAR     77  37  23 SW18G28   29.75R
$$

WAZ036>038-240500-
NORTHEAST WASHINGTON

CITY           SKY/WX    TMP DP  RH WIND       PRES   REMARKS
SPOKANE GEIGER PTCLDY    75  46  35 S15       29.65F
SPOKANE FELTS  CLEAR     77  48  35 S9        29.65F
FAIRCHILD AFB  CLEAR     72  50  46 SW17      29.68F
COEURDALENE,ID PTCLDY    72  47  40 S12       29.67F
DEER PARK      MOCLDY    73  47  39 SW9       29.66F
$$

WAZ029>033-240500-
SOUTHEAST WASHINGTON

CITY           SKY/WX    TMP DP  RH WIND       PRES   REMARKS
PULLMAN        CLEAR     69  49  48 SW3       29.76F
LEWISTON, ID   CLEAR     77  52  41 S9        29.69F
WALLA WALLA    CLEAR     80  49  33 SW20G29   29.74R
PENDLETON, OR  CLEAR     74  33  22 W26G40    29.79R
$$




USA.gov is the U.S. government's official web portal to all federal, state and local government web resources and services.